Theta_e
302 301 300 301 302 301 301 300 298 296 296 295 295 294 294 294 293 293 293 293 292 293 293 292 292 292 292 292 292 292 294 295
301 301 301 302 302 301 301 299 297 295 295 295 294 294 294 293 293 293 292 292 292 292 292 291 292 291 291 292 291 292 293 293
302 301 301 303 302 301 300 298 296 295 295 294 294 294 293 293 292 292 292 292 292 292 291 291 291 291 292 291 290 290 291 292
302 301 301 303 302 301 299 297 295 295 294 294 294 294 293 292 291 292 292 292 291 290 290 290 290 290 290 291 290 289 290 293
301 301 302 303 302 300 298 297 295 295 294 294 294 293 292 291 291 291 291 291 291 290 289 288 289 289 290 289 289 289 290 291
301 301 302 302 301 300 298 296 295 295 294 294 293 292 292 291 291 291 291 291 290 289 288 288 289 288 288 288 288 289 290 291
301 301 303 303 301 299 298 296 295 295 294 293 293 292 291 290 290 290 290 290 289 288 287 288 288 288 288 287 288 289 290 291
302 302 304 303 301 299 297 295 295 294 294 293 293 291 290 290 290 290 290 289 288 288 287 287 287 287 287 287 288 289 290 291
302 303 304 303 300 298 296 295 295 294 293 293 292 291 290 289 289 290 289 288 288 287 287 287 287 286 287 287 288 289 290 290
302 303 304 302 299 297 294 295 294 294 293 293 292 291 290 289 289 289 289 288 287 287 286 287 286 287 287 287 288 289 289 290
303 303 303 301 298 296 295 295 294 294 293 292 291 290 289 289 289 289 288 287 287 286 286 286 286 286 287 287 288 288 289 289
303 303 302 299 297 295 295 294 294 293 293 292 291 290 289 289 288 288 288 287 286 286 286 286 286 286 287 287 288 288 288 289
303 303 301 298 297 295 295 294 294 293 292 291 291 290 289 288 288 288 287 287 286 285 286 285 286 286 286 286 287 287 288 288
304 302 299 298 296 295 295 294 293 292 291 291 290 289 288 288 288 288 287 287 286 285 286 285 285 285 286 286 286 287 287 287
303 301 299 298 296 295 294 293 293 292 291 291 290 289 288 287 287 287 287 286 285 285 286 285 285 285 285 285 286 286 286 286
303 302 299 298 296 295 293 293 292 291 291 290 289 288 287 287 287 287 287 286 285 284 286 284 285 284 284 285 285 285 286 285
303 301 299 297 295 294 293 292 291 291 290 289 288 287 287 287 287 287 286 286 286 285 285 285 284 283 284 286 287 285 285 285
303 301 298 296 295 293 293 292 291 290 289 288 287 287 287 286 286 286 286 286 286 286 284 284 284 284 285 286 285 286 285 286
302 300 298 296 294 293 292 292 291 289 288 287 286 286 286 286 286 286 286 285 285 285 285 284 284 285 286 286 285 285 285 286
Wind_Speed
4 6 5 7 11 9 10 13 18 22 19 20 20 20 20 20 22 23 24 24 24 24 23 24 24 24 24 24 27 25 23 24
4 5 4 7 10 8 11 14 19 19 19 21 21 21 22 21 22 23 23 24 24 23 23 24 23 24 22 23 24 24 22 23
4 4 4 7 8 8 10 15 17 18 19 18 20 20 21 21 22 22 23 23 23 22 23 24 23 23 21 23 26 25 20 22
5 4 3 6 6 7 10 15 17 17 19 18 19 20 21 23 23 23 23 23 22 22 23 24 22 21 21 23 27 20 24 23
5 4 3 5 4 7 10 15 15 16 17 18 20 23 25 24 23 23 23 22 22 23 24 23 21 22 23 23 23 19 20 23
6 5 2 3 3 6 11 14 15 15 16 17 20 23 23 23 23 23 22 21 21 23 28 27 24 23 24 22 20 19 19 20
7 5 2 1 3 8 11 14 13 15 16 17 20 23 24 24 25 23 23 21 22 24 27 25 24 23 26 24 18 18 20 20
7 4 2 1 2 7 13 13 13 14 16 17 19 22 23 22 23 23 23 23 24 26 27 25 25 25 25 22 18 18 20 20
8 5 1 0 3 8 12 11 12 14 15 16 18 21 22 20 21 22 22 22 23 25 26 25 23 26 25 22 19 18 20 19
7 4 1 1 2 9 12 9 11 13 14 15 18 20 21 20 20 21 21 22 22 23 24 24 24 26 25 22 20 19 20 19
6 3 2 2 5 9 9 8 11 12 13 14 17 19 20 19 19 21 21 21 22 23 24 23 25 26 26 21 19 19 20 21
6 3 4 4 3 6 6 8 10 12 13 14 17 19 19 18 19 20 21 21 22 24 25 24 25 27 26 22 20 20 20 20
5 6 6 4 0 3 5 8 10 12 13 14 16 18 18 18 19 20 21 20 21 23 24 23 25 28 27 23 22 20 20 22
7 8 8 5 1 2 4 7 10 11 12 13 15 17 17 17 18 19 20 20 21 23 25 25 26 27 27 23 21 21 21 20
9 9 8 6 2 1 5 7 9 11 12 13 15 16 16 16 17 17 19 19 21 23 25 24 25 27 27 23 21 20 20 21
11 11 9 7 3 2 5 6 9 11 11 13 15 15 15 15 16 17 18 19 20 22 24 24 24 27 28 24 21 21 21 21
12 12 11 8 4 3 4 6 9 10 11 13 14 14 14 16 16 16 16 17 19 21 24 24 25 27 27 25 22 21 22 23
14 13 12 8 5 2 3 5 8 9 11 12 14 15 15 15 15 15 16 17 17 19 22 23 24 27 28 24 25 22 23 25
15 15 13 10 5 4 4 5 7 9 11 12 14 15 15 15 15 15 16 16 16 16 19 21 23 26 27 26 25 22 23 25
Wind_Direction
301 332 333 347 341 346 349 349 347 352 353 351 349 346 344 345 345 341 342 341 346 345 339 331 334 333 332 333 330 334 323 311
294 326 327 341 342 354 355 351 353 354 352 353 349 345 345 344 343 342 344 347 345 344 338 337 337 337 334 337 337 333 324 342
291 307 309 336 347 357 354 356 352 354 355 351 346 344 345 342 342 345 348 346 342 343 340 342 340 342 340 339 343 336 338 3
289 277 294 338 348 351 357 355 354 352 355 348 347 349 347 345 347 348 348 343 343 342 343 346 346 347 343 344 344 350 347 6
270 252 285 335 343 356 359 353 351 351 353 352 353 352 349 348 348 346 346 342 343 343 347 347 350 351 344 345 344 354 359 357
247 234 283 322 360 1 356 351 348 349 353 354 355 352 351 349 350 348 345 345 345 342 351 2 349 353 349 345 357 0 6 2
224 224 267 312 10 358 348 352 343 347 351 351 353 354 354 353 352 350 349 347 344 346 359 356 352 354 348 354 3 3 11 10
214 221 265 331 10 350 350 344 343 345 348 350 353 355 355 355 353 350 347 347 348 346 357 1 356 355 2 4 8 8 12 8
207 206 252 11 7 340 346 345 343 347 347 351 353 356 356 355 354 352 347 348 352 347 359 360 359 4 5 8 9 11 14 11
198 197 137 104 337 335 341 348 346 350 351 353 355 355 357 357 357 355 353 351 355 353 3 356 5 8 9 10 11 16 16 14
192 178 156 155 313 334 350 352 353 353 355 356 356 356 358 360 360 360 360 358 358 359 5 6 10 9 12 12 11 14 17 17
186 163 162 167 311 343 354 356 358 360 1 359 358 359 0 3 4 4 4 2 2 3 12 11 12 11 14 12 13 14 15 15
174 171 168 167 181 349 357 2 5 4 4 1 359 1 4 6 8 6 6 7 5 9 15 15 13 13 14 15 13 16 17 14
169 165 175 171 164 2 14 11 9 8 6 3 1 4 8 10 10 9 8 9 9 12 19 22 18 14 14 18 16 14 19 17
175 177 184 174 156 39 21 18 13 12 9 5 4 7 11 13 12 12 10 10 12 14 24 24 19 15 14 17 15 16 19 17
187 185 184 173 153 68 27 24 14 16 12 9 9 11 14 15 14 14 13 12 12 16 23 24 22 18 16 17 23 16 16 18
189 184 177 170 151 102 36 32 17 22 16 13 13 15 16 18 16 13 14 15 14 16 22 23 21 19 21 22 29 24 21 21
179 177 170 163 149 81 83 39 29 28 23 18 18 20 18 17 16 15 15 14 16 18 17 22 23 21 26 25 34 23 24 25
168 166 161 154 148 117 69 54 38 33 30 28 26 25 22 18 17 19 18 15 15 17 19 18 22 20 26 27 35 19 28 27